Showing default

SENTINEL 1B, 41456

Orbit data source: Space-Track

SENTINEL 1B, 41456 is an ESA payload satellite in SSO that was launched on Mon, 25 Apr 2016 UTC via a SOYUZ-ST-A launch vehicle from the French Guiana (FRGUI). Payload-class satellites include a variety of spacecraft equipped with specific instruments for various scientific and technological missions. These include communications satellites like Starlink; space stations such as the ISS; scientific satellites like the Hubble; Earth observation satellites from companies like Planet Labs, Umbra, and HawkEye 360; GPS; miniature CubeSats for education and research; and military/defense satellites.

Loading next visibility...
Identifier
41456, 2016-025A
Orbit
SSO
Country
Flag of ESAESA
Related business
Manufacturer
Thales Alenia
Mission
Non-operational Civil Radar Imaging
Bus & Motor
PRISMA, AOCS
Mass
2,157 kg wet, 2,027 kg dry
Launch date (UTC)
2016-04-25 (10 years ago)
Launch vehicle
SOYUZ-ST-A
Launch site
French Guiana (FRGUI)
Object type
Payload
Rocket body
Debris
Shape & HBR
Box + 4 Pan, 10.5 m
Radar Cross Section
23.487 m², Large (>1 m²)

Expand to show TLE details & history
Last TLE update: 5 hours ago

TLE from 5 hours ago
0 SENTINEL 1B
1 41456U 16025A   25304.83688398  .00004186  00000-0  36199-3 0  9991
2 41456  98.1287 351.6129 0016276 165.7779 194.3904 14.97674077509587
Epoch: 2025-10-31T20:05Z
TLE epoch observation values (Epoch: 2025-10-31T20:05:06.775Z)
Latitude
0.00002°
Longitude
9.95907°
Altitude
588.087 km
Speed
7.56 km/s
True Right ascension
23h 26m 27s
True Declination
0° 00' 00"
Sunlit
Object was in full shadow at epoch
Visualization orbit readout
Latitude
Unknown
Longitude
Unknown
Altitude
Unknown
Speed
Unknown
Apparent Right ascension
Unknown
Apparent Declination
Unknown
Sunlit
N/A
Visualization observer readout
Local Sidereal Time
21:14:28
Azimuth
Unknown
Elevation
Unknown
Doppler factor
Unknown
Orbital elements
Apogee altitude
582.423 km
Perigee altitude
559.802 km
Semi-major axis
6,949.25 km
Eccentricity
0.00163
Inclination
98.1287°
RAAN
351.6129°
Arg. of periapsis
165.7779°
True anomaly
194.34414°
Mean anomaly
194.3904°
Eccentric anomaly
194.36726°
Mean motion
3.74659 °/min
Orbital period
96.09 mins
BSTAR
0.00036199
Loading maneuver chart data...
Computing Atmospheric mass density...
Loading historical data...
Loading historical data...
Loading historical data...
Loading historical data...
Loading historical data...
Loading historical data...
Loading historical data...

Documentation

Showing up to 5 results
|